SCP
0 0 0 0 0 0 0 0 0 0 0 0 0 0 0 0 0 0 0 0 0 0 0 0 0 1 1 1 1 1 1 1 1 1 1 0 0 0 0 0 0 0 -0
0 0 0 0 0 0 0 0 0 0 0 0 0 0 0 0 0 0 0 0 0 0 0 0 0 0 1 1 1 1 1 1 1 1 1 1 0 0 0 0 0 -0 -0
0 0 0 0 0 0 0 0 0 0 0 0 0 0 0 0 0 0 0 0 0 0 0 0 0 0 0 1 1 1 1 1 1 1 1 1 1 0 0 0 0 0 0
0 0 0 0 0 0 0 0 0 0 0 0 0 0 0 0 0 0 0 0 0 0 0 0 0 0 0 0 1 1 1 1 1 1 1 1 1 1 1 0 0 0 0
0 0 0 0 0 0 0 0 0 0 0 0 0 0 0 0 0 0 0 0 0 0 0 0 0 0 0 0 0 0 1 1 1 1 1 1 1 1 1 0 0 0 0
0 0 0 0 0 0 0 0 0 0 0 0 0 0 0 0 0 0 0 0 0 0 0 0 0 0 0 0 0 0 0 0 1 1 1 1 1 0 0 0 0 0 0
0 0 0 0 0 0 0 0 0 0 0 0 0 0 0 0 0 0 0 0 0 0 0 0 0 0 0 0 0 0 0 0 0 0 0 0 0 0 0 0 0 0 0
0 0 0 0 0 0 0 0 0 0 0 0 0 0 0 0 0 -0 0 0 0 0 0 0 0 0 0 0 0 0 0 0 0 0 0 0 0 0 0 0 0 0 0
0 0 0 0 0 0 0 0 0 0 0 0 0 0 0 0 0 0 0 0 0 0 0 0 0 0 0 0 0 0 0 0 0 0 0 0 0 0 0 0 0 0 0
0 0 0 0 0 0 0 0 0 0 0 0 0 0 0 0 0 0 0 0 0 0 0 0 0 0 0 0 0 0 0 0 0 0 0 0 0 0 0 0 0 0 0
0 0 0 0 0 0 0 0 0 0 0 0 0 0 0 0 0 0 0 0 0 0 0 0 0 0 0 0 0 0 0 0 0 0 0 0 0 0 0 0 0 0 0
0 0 0 0 0 0 0 0 0 0 0 0 0 0 0 0 0 0 0 0 0 0 0 0 0 0 0 0 0 0 0 0 0 0 0 0 0 0 0 0 0 0 0
0 0 0 0 0 0 0 0 0 0 0 0 0 0 0 0 0 0 0 0 0 0 0 0 0 0 0 0 0 0 0 0 0 0 0 0 0 0 0 0 0 0 0
0 0 0 0 0 0 0 0 0 0 0 0 0 0 0 0 0 0 0 0 0 0 0 0 0 0 0 0 0 0 0 0 0 0 0 0 0 0 0 0 0 0 0
0 0 0 0 0 0 0 0 0 0 0 0 0 0 0 0 0 0 0 0 0 0 0 0 0 0 0 0 0 0 0 0 0 0 0 0 0 0 0 0 0 0 0
0 0 0 0 0 0 0 0 0 0 0 0 0 0 0 0 0 0 0 0 0 0 0 0 0 0 0 0 0 0 0 0 0 0 0 0 0 0 0 0 0 0 0
0 0 0 0 0 0 0 0 0 0 0 0 0 0 0 0 -0 0 0 0 0 0 0 0 0 0 0 0 0 0 0 0 0 0 0 0 0 0 0 0 0 0 0
0 0 0 0 0 0 0 0 0 0 0 0 0 0 0 0 0 0 0 0 0 0 0 0 0 0 0 0 0 0 0 0 0 0 0 0 0 0 0 0 0 0 0
0 0 0 0 0 0 0 0 0 0 0 0 0 0 0 0 0 0 0 0 0 0 0 0 0 0 0 0 0 0 0 0 0 0 0 0 0 0 0 0 0 0 0
0 0 0 0 0 0 0 0 0 0 0 0 0 0 0 0 0 0 0 0 0 0 0 0 0 0 0 0 0 0 0 0 0 0 0 0 0 0 0 0 0 0 0
0 0 0 0 0 0 0 0 0 0 0 0 0 0 0 0 0 0 0 0 0 0 0 0 0 0 0 0 0 0 0 0 0 0 0 0 0 0 0 0 0 0 0
0 0 0 0 0 0 0 0 0 0 0 0 0 0 0 0 0 0 0 0 0 0 0 0 0 0 0 0 0 0 0 0 0 0 0 0 0 0 0 0 0 0 0
0 0 0 0 0 0 0 0 0 0 0 0 0 0 0 0 0 0 0 0 0 0 0 0 0 0 0 0 0 0 0 0 0 0 0 0 0 0 0 0 0 0 0
0 0 0 0 0 0 0 0 0 0 0 0 0 0 0 0 0 0 0 0 0 0 0 0 0 0 0 0 0 0 0 0 0 0 0 0 0 0 0 0 0 0 0
0 0 0 0 0 0 0 0 0 0 0 0 0 0 0 0 0 0 0 0 0 0 0 0 0 0 0 0 0 0 0 0 0 0 0 0 0 0 0 0 0 0 0
0 0 0 0 0 0 0 0 0 0 0 0 0 0 0 0 0 0 0 0 0 0 0 0 0 0 0 0 0 0 0 0 0 0 0 0 0 0 0 0 0 0 0
Wind_Speed
6 6 6 6 6 6 6 6 5 5 4 3 2 2 4 5 5 5 6 5 5 5 5 6 7 7 6 6 6 6 7 6 7 4 2 5 8 8 9 8 10 11 11
5 5 5 5 6 6 7 6 5 5 4 3 2 2 3 4 4 5 5 5 5 5 5 6 6 6 7 7 6 7 7 7 7 7 5 6 8 9 10 10 9 11 10
5 4 5 5 6 6 6 6 5 5 4 4 3 3 3 3 4 4 5 5 5 4 5 5 5 6 7 6 7 7 6 6 6 5 5 5 5 6 8 9 9 7 9
3 3 3 4 4 5 6 5 5 5 5 5 4 4 4 4 4 3 2 2 2 3 4 4 5 6 6 6 5 6 6 6 6 5 4 5 4 4 4 5 6 6 7
1 2 3 3 3 4 5 5 5 4 5 5 5 5 5 5 7 8 3 3 3 4 4 4 5 7 9 9 7 6 4 3 4 4 4 4 3 3 2 3 4 4 5
3 4 3 2 3 3 4 4 4 4 5 5 6 6 7 7 8 10 7 5 4 4 4 4 3 4 4 6 8 11 10 5 2 1 2 2 2 1 1 2 3 4 4
4 4 3 3 3 3 3 3 4 4 4 4 5 6 7 7 6 7 8 5 6 7 6 5 5 5 5 3 3 4 8 9 8 3 3 3 3 2 1 1 2 3 2
3 3 3 3 4 4 4 4 4 3 3 4 5 6 6 6 4 4 5 5 7 7 8 7 7 8 11 11 6 7 8 9 8 6 5 5 4 3 2 1 2 3 1
3 2 3 3 3 2 2 2 2 2 3 3 4 5 6 6 3 3 6 5 6 8 8 9 9 10 13 15 6 6 7 6 8 9 8 7 6 5 2 1 1 2 3
3 2 2 2 1 1 0 1 1 1 2 3 3 4 5 6 4 2 7 3 5 5 5 7 10 10 11 14 8 7 7 6 5 5 4 4 4 4 1 2 1 1 1
4 3 3 2 2 2 1 1 0 1 2 3 4 3 4 6 5 4 6 4 3 3 4 5 6 8 8 9 8 6 5 7 2 2 3 3 3 3 3 3 3 3 2
5 4 3 3 3 3 3 2 2 2 1 2 4 4 3 4 7 5 5 4 5 2 2 3 4 4 5 5 5 5 6 8 3 2 2 3 3 4 4 4 5 5 5
4 3 3 3 4 5 5 4 3 3 3 3 3 4 5 5 4 5 5 4 5 4 3 4 2 2 3 1 2 5 6 4 4 3 2 3 3 3 1 2 3 2 2
3 3 3 3 3 4 4 4 4 5 4 4 3 3 4 4 6 5 4 3 2 3 3 1 3 3 3 2 3 3 2 3 4 4 3 2 1 1 0 1 0 1 2
3 4 4 4 4 3 3 3 3 2 2 2 2 2 3 4 5 6 6 4 4 3 3 4 4 4 3 2 2 2 3 2 2 3 3 4 4 3 2 1 2 3 2
3 4 4 4 4 4 5 5 3 2 2 1 1 4 3 4 5 5 4 4 3 3 3 2 1 3 5 6 6 5 4 4 3 4 4 4 5 4 4 3 4 4 3
1 2 3 4 4 4 4 4 6 5 3 3 3 1 3 5 5 5 5 6 6 6 6 3 2 1 1 3 6 7 7 6 5 6 6 5 5 5 6 6 5 5 5
2 3 2 3 3 3 2 2 2 2 4 5 7 7 4 1 3 4 5 7 8 7 5 4 3 2 2 2 3 5 6 7 7 6 6 6 7 7 7 7 7 8 7
4 2 2 1 2 1 1 2 2 2 4 4 3 4 7 5 8 7 6 7 7 6 5 4 4 3 3 3 3 4 5 5 6 7 7 7 7 8 8 8 8 7 8
3 2 2 3 3 3 2 3 3 3 4 5 5 6 5 8 8 6 6 4 5 5 4 4 4 4 5 5 5 6 6 6 6 6 6 6 7 8 9 10 9 8 8
6 7 7 6 4 3 3 3 3 4 5 5 6 4 3 8 8 7 6 4 4 4 4 5 5 6 5 5 6 7 8 7 6 6 7 7 7 7 7 8 8 8 7
7 6 7 7 5 5 4 5 5 5 5 6 6 2 6 6 6 5 4 3 3 3 4 5 6 6 6 6 6 7 7 7 6 7 8 8 7 7 7 7 7 7 6
9 8 8 7 7 5 6 7 6 6 6 6 6 6 5 5 5 5 5 4 4 4 5 5 5 6 5 5 6 7 7 6 7 8 9 9 8 8 8 8 8 7 6
11 11 10 9 8 8 8 7 7 7 7 7 6 6 6 5 5 6 6 6 5 5 5 5 5 6 6 6 6 5 5 7 8 8 10 10 10 8 8 8 9 10 8
12 11 11 10 9 8 8 7 7 7 7 6 6 6 6 6 6 6 6 6 6 6 6 6 5 6 6 7 6 2 6 5 4 8 10 10 9 9 9 9 8 8 9
12 12 11 9 8 8 7 7 7 8 8 7 7 6 6 6 7 6 6 6 6 6 7 6 7 8 8 7 2 4 4 1 1 4 9 10 9 8 8 8 11 10 10
Wind_Direction
49 46 44 51 61 67 67 67 68 64 61 58 21 310 294 290 291 287 288 292 285 291 293 291 287 283 269 263 256 249 243 238 248 250 196 159 172 180 169 181 171 182 190
46 56 61 64 70 77 76 70 69 67 57 44 7 312 293 293 291 288 287 292 293 296 300 298 294 290 278 270 263 255 247 236 238 242 210 179 188 193 187 201 197 203 207
34 53 71 80 83 77 72 67 64 63 57 44 25 3 347 329 311 298 291 290 298 312 323 318 315 301 287 276 267 264 256 245 231 233 218 187 184 193 196 212 220 227 233
45 51 73 81 85 86 79 73 65 56 52 43 34 25 11 359 352 333 307 311 354 16 12 359 352 342 336 317 290 278 265 251 231 224 214 191 177 178 203 217 219 217 233
77 80 70 82 96 99 93 86 74 56 53 44 38 38 30 29 20 5 20 56 61 55 44 29 23 19 24 8 357 343 310 260 231 214 202 183 175 168 195 233 228 214 219
65 70 67 79 104 114 111 105 95 72 55 45 42 45 45 42 25 13 3 69 62 55 50 42 43 27 32 45 41 37 24 3 313 209 182 164 143 129 88 257 254 227 222
83 77 65 62 64 68 85 89 80 69 62 51 50 57 60 55 37 29 12 46 60 51 44 33 34 36 357 16 74 90 59 42 20 8 103 101 100 71 30 284 274 270 266
107 85 67 63 63 52 48 47 42 40 44 47 54 66 73 69 54 30 351 63 63 58 54 47 43 36 19 353 27 50 52 43 25 37 64 73 74 77 77 11 325 302 285
118 92 70 61 69 66 47 13 1 9 29 32 47 64 75 83 73 3 332 78 76 70 61 48 36 39 12 348 22 61 66 76 78 62 56 67 65 50 13 251 226 257 243
105 85 58 41 39 2 265 255 274 354 9 354 31 43 58 70 78 2 326 40 74 84 87 82 59 28 9 360 12 37 51 49 64 99 103 137 119 104 88 348 322 265 247
93 86 66 41 11 352 322 262 179 99 23 349 10 21 47 53 79 46 356 358 33 48 61 59 51 20 8 1 353 23 8 327 355 90 115 111 118 102 83 61 13 350 352
90 87 77 54 28 35 33 23 39 63 58 360 -0 349 15 52 47 46 25 12 349 25 34 44 52 11 351 354 7 6 318 299 311 43 64 59 48 50 53 52 46 41 30
102 97 92 78 55 46 46 40 48 52 45 27 7 353 359 16 71 82 61 47 14 355 15 33 7 319 287 262 16 325 308 314 335 352 41 53 51 43 31 122 124 120 106
137 134 126 110 89 69 60 51 49 45 43 38 23 5 4 16 20 18 23 46 41 1 348 328 239 252 258 288 284 285 330 8 338 331 335 346 350 208 269 344 208 198 165
167 163 155 143 131 117 102 79 70 74 50 9 0 353 352 14 30 3 349 7 14 20 336 316 311 312 300 288 283 305 311 306 307 325 310 297 282 266 235 200 280 276 254
181 159 156 158 151 151 146 138 99 72 123 159 329 330 1 30 2 351 346 336 318 298 278 259 283 320 326 324 313 300 285 285 305 307 302 299 295 288 272 239 230 243 243
114 120 154 156 158 167 167 170 161 161 173 172 159 108 14 5 353 340 323 305 280 264 263 265 246 212 255 306 310 310 309 308 305 290 290 290 287 281 271 259 246 242 241
203 146 195 166 172 174 170 211 214 200 184 182 178 171 165 209 310 311 306 293 266 244 275 293 291 282 256 248 270 295 308 310 302 291 286 285 285 281 275 263 252 247 245
225 182 182 157 203 204 241 263 292 316 314 311 303 173 182 212 224 235 250 273 293 299 306 315 320 325 320 315 312 304 297 296 302 304 295 290 285 281 277 273 263 246 248
201 78 267 235 212 206 236 271 288 301 303 315 319 328 342 321 300 275 246 275 299 309 319 317 327 325 316 323 319 312 305 299 298 291 293 295 292 287 280 273 271 262 242
201 168 193 239 234 237 255 272 291 299 306 317 317 12 23 308 299 299 299 311 320 326 331 323 317 313 319 320 317 319 312 307 311 316 312 306 302 297 293 286 282 275 267
220 210 205 230 237 238 256 265 274 283 291 295 302 280 168 262 290 302 306 309 305 304 305 303 308 313 317 324 324 312 306 310 325 337 327 320 316 310 305 299 293 290 278
233 230 227 231 241 228 235 256 265 273 281 290 298 305 293 290 295 293 294 296 292 288 292 299 298 304 332 337 322 312 316 336 344 336 323 317 319 323 325 323 316 300 284
226 231 237 238 236 241 241 249 257 264 274 286 293 293 289 284 281 284 283 285 281 277 277 279 286 299 303 297 296 316 14 15 342 322 323 314 306 307 314 317 317 324 321
231 230 233 239 241 240 245 252 259 264 269 273 277 280 279 277 272 270 270 270 271 271 270 268 268 272 278 281 285 5 78 53 359 328 313 304 308 309 307 306 307 311 312
231 234 235 236 237 237 242 251 256 257 258 261 265 270 274 275 274 273 270 267 265 259 258 260 262 266 270 269 287 103 120 117 289 296 301 299 301 307 321 314 308 303 297